Find STARLINK-36248

NORAD ID: 70612 Constellation: starlink operational
LEOCIRCULAR

Live Position

Loading 3D Globe...

About STARLINK-36248

Description loading...

Upcoming Passes

Passes for default location (London). Set your location on the main map for personalized predictions.

Altitude History

Loading altitude history...

Two-Line Element Set

1 70612C 26099AE 26122.89145833 .00060080 00000+0 67902-4 0 1225
2 70612 53.1633 22.5467 0005574 283.7252 198.9817 16.08451855 12
Epoch: May 2, 2026 • Age: 29 hours